Fergus Falls, MN

5:14 PM CDT on August 23, 2016 (GMT -0500)
Fergus Falls Municipal-Mickelson

Weather History for KFFM - December, 2012

Change the Weather History Date:

Saturday, December 15, 2012

  Actual Average Record
Temperature  
Mean Temperature 24 °F -  
Max Temperature 33 °F 23 °F 46 °F (1959)
Min Temperature 14 °F 7 °F -22 °F (1989)
Degree Days  
Heating Degree Days 42    
Moisture  
Dew Point 26 °F    
Average Humidity 87    
Maximum Humidity 100    
Minimum Humidity 70    
Precipitation  
Precipitation 0.23 in - - ()
Sea Level Pressure  
Sea Level Pressure 29.62 in    
Wind  
Wind Speed 9 mph (NNE)    
Max Wind Speed 20 mph    
Max Gust Speed 30 mph    
Visibility 6 miles    
Events Rain , Snow    
Averages and records for this station are not official NWS values.
T = Trace of Precipitation, MM = Missing Value Source: NWS Daily Summary

Daily Weather History Graph

Daily Weather History Graph

Search for Another Location

Airport or City:

Trip Planner

Search our weather history database for the weather conditions in past years. The results will help you decide how hot, cold, wet, or windy it might be!

Date:

Astronomy

Dec. 15, 2012 Rise Set
Actual Time 8:01 AM CST 4:38 PM CST
Civil Twilight 7:26 AM CST 5:13 PM CST
Nautical Twilight 6:48 AM CST 5:51 PM CST
Astronomical Twilight 6:11 AM CST 6:28 PM CST
Moon 9:48 AM CST (12/15) 7:51 PM CST (12/15)
Length of Visible Light 9h 47m
Length of Day
8h 37m
Waxing Crescent, 8% of the Moon is Illuminated
Dec 15
Waxing Crescent
Dec 19
First Quarter
Dec 28
Full
Jan 4
Last Quarter
Jan 11
New

Hourly Weather History & Observations

Time (CST) Temp. Windchill Dew Point Humidity Pressure Visibility Wind Dir Wind Speed Gust Speed Precip Events Conditions
12:13 AM 32.0 °F 23.6 °F 24.8 °F 75% 29.68 in 10.0 mi ESE 10.4 mph - N/A   Clear
12:33 AM 33.8 °F 25.8 °F 24.8 °F 70% 29.67 in 10.0 mi ESE 10.4 mph - N/A   Clear
12:53 AM 33.8 °F 27.0 °F 26.6 °F 75% 29.66 in 10.0 mi ESE 8.1 mph - N/A   Clear
1:13 AM 33.8 °F 27.0 °F 26.6 °F 75% 29.66 in 10.0 mi ESE 8.1 mph - N/A   Clear
1:34 AM 33.8 °F 27.7 °F 26.6 °F 75% 29.67 in 10.0 mi ESE 6.9 mph - N/A   Clear
1:53 AM 33.8 °F 28.6 °F 26.6 °F 75% 29.66 in 10.0 mi ESE 5.8 mph - N/A   Clear
2:13 AM 33.8 °F 28.6 °F 26.6 °F 75% 29.66 in 10.0 mi ESE 5.8 mph - N/A   Clear
2:33 AM 33.8 °F 29.6 °F 26.6 °F 75% 29.65 in 10.0 mi East 4.6 mph - N/A   Clear
2:53 AM 33.8 °F 29.6 °F 26.6 °F 75% 29.65 in 10.0 mi ESE 4.6 mph - N/A   Clear
3:13 AM 33.8 °F 29.6 °F 26.6 °F 75% 29.64 in 10.0 mi East 4.6 mph - N/A   Clear
3:34 AM 33.8 °F 27.7 °F 26.6 °F 75% 29.64 in 10.0 mi ESE 6.9 mph - N/A   Scattered Clouds
3:53 AM 33.8 °F 29.6 °F 26.6 °F 75% 29.63 in 10.0 mi East 4.6 mph - N/A   Mostly Cloudy
4:13 AM 33.8 °F 30.8 °F 26.6 °F 75% 29.63 in 10.0 mi East 3.5 mph - N/A   Mostly Cloudy
4:34 AM 33.8 °F 29.6 °F 26.6 °F 75% 29.63 in 10.0 mi East 4.6 mph - N/A   Overcast
4:53 AM 33.8 °F 29.6 °F 28.4 °F 81% 29.63 in 10.0 mi East 4.6 mph - N/A   Overcast
5:13 AM 33.8 °F 27.7 °F 28.4 °F 81% 29.64 in 10.0 mi ESE 6.9 mph - N/A   Overcast
5:34 AM 33.8 °F 27.7 °F 28.4 °F 81% 29.63 in 10.0 mi East 6.9 mph - N/A   Overcast
5:53 AM 33.8 °F 27.7 °F 28.4 °F 81% 29.62 in 10.0 mi ENE 6.9 mph - N/A   Overcast
6:13 AM 33.8 °F 27.7 °F 28.4 °F 81% 29.62 in 7.0 mi ENE 6.9 mph - N/A   Overcast
6:34 AM 33.8 °F 27.7 °F 28.4 °F 81% 29.62 in 7.0 mi ENE 6.9 mph - N/A   Light Drizzle
6:53 AM 33.8 °F 27.0 °F 28.4 °F 81% 29.62 in 7.0 mi ENE 8.1 mph - N/A   Overcast
7:13 AM 32.0 °F 25.6 °F 28.4 °F 87% 29.62 in 7.0 mi ENE 6.9 mph - N/A   Overcast
7:34 AM 32.0 °F 25.6 °F 28.4 °F 87% 29.62 in 5.0 mi ENE 6.9 mph - N/A   Overcast
7:53 AM 32.0 °F 24.2 °F 28.4 °F 87% 29.61 in 5.0 mi ENE 9.2 mph - N/A   Overcast
8:13 AM 32.0 °F 24.8 °F 30.2 °F 93% 29.61 in 4.0 mi ENE 8.1 mph - N/A   Overcast
8:34 AM 33.8 °F 27.0 °F 30.2 °F 87% 29.60 in 2.5 mi ENE 8.1 mph - 0.01 in   Drizzle
8:53 AM 33.8 °F 27.0 °F 30.2 °F 87% 29.60 in 2.0 mi ENE 8.1 mph - 0.03 in   Overcast
9:13 AM 33.8 °F 27.7 °F 32.0 °F 93% 29.60 in 2.0 mi ENE 6.9 mph - 0.01 in   Overcast
9:34 AM 33.8 °F 27.7 °F 32.0 °F 93% 29.60 in 1.8 mi ENE 6.9 mph - 0.02 in   Overcast
9:53 AM 33.8 °F 29.6 °F 32.0 °F 93% 29.60 in 1.8 mi NE 4.6 mph - 0.04 in   Drizzle
10:13 AM 33.8 °F 29.6 °F 32.0 °F 93% 29.61 in 1.8 mi NE 4.6 mph - 0.02 in   Overcast
10:33 AM 33.8 °F 30.8 °F 32.0 °F 93% 29.61 in 1.8 mi NE 3.5 mph - 0.04 in   Overcast
10:53 AM 33.8 °F 30.8 °F 32.0 °F 93% 29.60 in 1.5 mi NE 3.5 mph - 0.06 in   Overcast
11:13 AM 33.8 °F 30.8 °F 32.0 °F 93% 29.60 in 1.5 mi NE 3.5 mph - 0.02 in Rain Light Rain
11:33 AM 33.8 °F - 32.0 °F 93% 29.60 in 1.0 mi Calm Calm - 0.03 in Snow Light Snow
11:53 AM 33.8 °F - 32.0 °F 93% 29.59 in 0.8 mi Calm Calm - 0.05 in Snow Light Snow
12:13 PM 33.8 °F 30.8 °F 32.0 °F 93% 29.58 in 0.5 mi North 3.5 mph - 0.02 in Snow Light Snow
12:53 PM 33.8 °F 29.6 °F 32.0 °F 93% 29.57 in 0.8 mi North 4.6 mph - 0.04 in Snow Light Snow
1:13 PM 33.8 °F 28.6 °F 32.0 °F 93% 29.57 in 1.0 mi NNW 5.8 mph - N/A Snow Light Snow
1:53 PM 33.8 °F 27.0 °F 32.0 °F 93% 29.56 in 1.5 mi NNW 8.1 mph - N/A Rain Light Rain
2:13 PM 33.8 °F 26.4 °F 32.0 °F 93% 29.55 in 1.2 mi North 9.2 mph - N/A Rain Light Rain
2:33 PM 33.8 °F 26.4 °F 32.0 °F 93% 29.56 in 1.2 mi NNW 9.2 mph - N/A   Overcast
2:53 PM 30.2 °F 20.2 °F 30.2 °F 100% 29.56 in 1.0 mi NNW 12.7 mph - 0.01 in Snow Light Snow
3:14 PM 30.2 °F 19.8 °F 30.2 °F 100% 29.56 in 1.8 mi NNW 13.8 mph - N/A Rain Light Freezing Rain
3:33 PM 30.2 °F 20.2 °F 28.4 °F 93% 29.57 in 2.0 mi NNW 12.7 mph 18.4 mph N/A   Overcast
3:53 PM 28.4 °F 18.0 °F 28.4 °F 100% 29.58 in 3.0 mi NNW 12.7 mph - N/A   Overcast
4:12 PM 28.4 °F 18.0 °F 28.4 °F 100% 29.58 in 4.0 mi NNW 12.7 mph - N/A   Overcast
4:33 PM 28.4 °F 18.0 °F 26.6 °F 93% 29.59 in 4.0 mi NNW 12.7 mph - N/A   Scattered Clouds
4:53 PM 28.4 °F 18.5 °F 26.6 °F 93% 29.59 in 5.0 mi NNW 11.5 mph - N/A   Scattered Clouds
5:13 PM 28.4 °F 17.5 °F 26.6 °F 93% 29.60 in 5.0 mi NNW 13.8 mph - N/A   Scattered Clouds
5:53 PM 26.6 °F 14.7 °F 24.8 °F 93% 29.61 in 4.0 mi NNW 15.0 mph - N/A   Mostly Cloudy
6:13 PM 26.6 °F 14.7 °F 24.8 °F 93% 29.62 in 4.0 mi NNW 15.0 mph 19.6 mph N/A   Scattered Clouds
6:33 PM 24.8 °F 13.4 °F 23.0 °F 93% 29.63 in 4.0 mi NNW 12.7 mph 18.4 mph N/A   Scattered Clouds
6:54 PM 24.8 °F 12.4 °F 23.0 °F 93% 29.64 in 4.0 mi NNW 15.0 mph 21.9 mph N/A   Overcast
7:13 PM 24.8 °F 12.4 °F 21.2 °F 86% 29.64 in 4.0 mi NNW 15.0 mph 20.7 mph N/A   Overcast
7:54 PM 21.2 °F 7.8 °F 19.4 °F 93% 29.65 in 5.0 mi North 15.0 mph 19.6 mph N/A   Scattered Clouds
8:13 PM 21.2 °F 7.8 °F 19.4 °F 93% 29.66 in 7.0 mi NNW 15.0 mph 18.4 mph N/A   Clear
8:33 PM 19.4 °F 5.0 °F 17.6 °F 93% 29.66 in 10.0 mi NNW 16.1 mph 21.9 mph N/A   Clear
8:54 PM 17.6 °F 2.7 °F 15.8 °F 93% 29.66 in 10.0 mi NNW 16.1 mph 23.0 mph N/A   Scattered Clouds
9:13 PM 17.6 °F 2.2 °F 14.0 °F 86% 29.67 in 10.0 mi NNW 17.3 mph 24.2 mph N/A   Scattered Clouds
9:33 PM 17.6 °F 1.3 °F 12.2 °F 79% 29.67 in 10.0 mi NNW 19.6 mph 25.3 mph N/A   Clear
9:54 PM 17.6 °F 1.7 °F 12.2 °F 79% 29.67 in 10.0 mi NNW 18.4 mph 24.2 mph N/A   Clear
10:13 PM 15.8 °F -1.1 °F 12.2 °F 86% 29.67 in 10.0 mi NNW 19.6 mph 29.9 mph N/A   Clear
10:33 PM 15.8 °F 0.3 °F 12.2 °F 86% 29.68 in 10.0 mi NNW 16.1 mph 27.6 mph N/A   Clear
10:54 PM 15.8 °F 0.9 °F 12.2 °F 86% 29.68 in 10.0 mi NNW 15.0 mph 25.3 mph N/A   Scattered Clouds
11:13 PM 15.8 °F -1.1 °F 10.4 °F 79% 29.68 in 10.0 mi NNW 19.6 mph 23.0 mph N/A   Scattered Clouds
11:33 PM 14.0 °F -1.4 °F 10.4 °F 86% 29.69 in 10.0 mi NNW 15.0 mph 23.0 mph N/A   Mostly Cloudy
11:54 PM 14.0 °F -2.0 °F 10.4 °F 86% 29.70 in 7.0 mi NNW 16.1 mph 20.7 mph N/A   Overcast